Location: Corcelles
(46.1547°N, 4.7234°E)
Time: 10:41:40
(UTC+00:00)

Cosmos 405 Rocket - Pass Details

Date: 14 July 2020
Orbit: 489 x 555 km, 81.3° (Epoch: 05 August)

Event Time Altitude Azimuth Distance (km) Brightness Sun altitude
Exits shadow 00:52:57 49° 129° (SE) 667 3.0 -20.6°
Maximum altitude 00:53:28 54° 97° (E) 627 3.1 -20.6°
Drops below altitude 10° 00:57:10 10° 20° (NNE) 1,723 6.6 -20.4°
Sets 00:59:18 0° 16° (NNE) 2,604 7.9 -20.3°
